RYR5987 LEPA-EGNV

Flight info

Callsign RYR5987
Flight time 2h 22m
Altitude 36000
Route DRAGO N863 GIROM DCT AGN DCT SECHE DCT UVELI DCT CNA DCT TUPAR UY120 AKIKI UN867 AVANT UM184 HEMEL Q3 MOGLI L613 MAMUL UY250 RIMTO Y250 GASKO
Aircraft A320/M-SDE3FGHIRWY/LB1

Departure

Time 2026-05-08 21:44
Airport Palma de Mallorca Airport (LEPA)

Arrival

Time 2026-05-09 00:06
Airport Teesside International Airport (EGNV)
Time Latitude Longitude Altitude Speed Heading
2026-05-08 21:19 39.55156 2.73011 15 ft 0 kts 195°
2026-05-08 21:32 39.55159 2.73012 15 ft 2 kts 195°
2026-05-08 21:32 39.55174 2.73017 14 ft 2 kts 195°
2026-05-08 21:32 39.55189 2.73022 14 ft 2 kts 195°
2026-05-08 21:33 39.55198 2.73025 14 ft 1 kts 195°
2026-05-08 21:33 39.55212 2.73025 14 ft 2 kts 152°
2026-05-08 21:33 39.55223 2.73011 13 ft 2 kts 110°
2026-05-08 21:33 39.55224 2.72991 13 ft 2 kts 67°
2026-05-08 21:34 39.55220 2.72984 13 ft 1 kts 48°
2026-05-08 21:34 39.55217 2.72979 13 ft 0 kts 54°
2026-05-08 21:37 39.55222 2.72987 13 ft 3 kts 54°
2026-05-08 21:38 39.55242 2.73025 14 ft 6 kts 56°
2026-05-08 21:38 39.55268 2.73078 15 ft 7 kts 58°
2026-05-08 21:38 39.55298 2.73141 17 ft 8 kts 59°
2026-05-08 21:38 39.55333 2.73215 18 ft 10 kts 59°
2026-05-08 21:39 39.55376 2.73307 19 ft 12 kts 59°
2026-05-08 21:39 39.55422 2.73403 22 ft 12 kts 58°
2026-05-08 21:39 39.55468 2.73499 22 ft 12 kts 58°
2026-05-08 21:39 39.55498 2.73584 23 ft 7 kts 102°
2026-05-08 21:40 39.55460 2.73626 25 ft 6 kts 149°
2026-05-08 21:40 39.55421 2.73657 27 ft 6 kts 149°
2026-05-08 21:40 39.55370 2.73697 30 ft 10 kts 148°
2026-05-08 21:41 39.55215 2.73821 36 ft 13 kts 149°
2026-05-08 21:41 39.55138 2.73881 37 ft 12 kts 149°
2026-05-08 21:41 39.55058 2.73944 37 ft 14 kts 148°
2026-05-08 21:41 39.54972 2.74012 36 ft 15 kts 148°
2026-05-08 21:42 39.54871 2.74091 32 ft 18 kts 148°
2026-05-08 21:42 39.54781 2.74109 31 ft 13 kts 227°
2026-05-08 21:42 39.54733 2.74011 33 ft 12 kts 239°
2026-05-08 21:42 39.54688 2.73914 33 ft 13 kts 238°
2026-05-08 21:43 39.54635 2.73803 33 ft 14 kts 239°
2026-05-08 21:43 39.54576 2.73691 33 ft 14 kts 215°
2026-05-08 21:43 39.54483 2.73727 33 ft 15 kts 147°
2026-05-08 21:43 39.54424 2.73811 32 ft 12 kts 68°
2026-05-08 21:44 39.54503 2.73971 31 ft 48 kts 60°
2026-05-08 21:44 39.54810 2.74618 22 ft 117 kts 59°
2026-05-08 21:44 39.55336 2.75732 54 ft 165 kts 58°
2026-05-08 21:44 39.55940 2.77010 639 ft 168 kts 59°
2026-05-08 21:45 39.56544 2.78281 1375 ft 166 kts 60°
2026-05-08 21:45 39.57161 2.79532 2052 ft 169 kts 60°
2026-05-08 21:45 39.57820 2.80839 2515 ft 184 kts 59°
2026-05-08 21:45 39.58545 2.82289 2974 ft 201 kts 59°
2026-05-08 21:46 39.59339 2.83880 3431 ft 219 kts 59°
2026-05-08 21:46 39.60177 2.85578 4088 ft 229 kts 59°
2026-05-08 21:46 39.61028 2.87324 4907 ft 231 kts 59°
2026-05-08 21:46 39.61877 2.89096 5616 ft 238 kts 59°
2026-05-08 21:47 39.62785 2.90946 6330 ft 245 kts 51°
2026-05-08 21:47 39.64119 2.92231 7011 ft 247 kts 13°
2026-05-08 21:47 39.65805 2.92217 7721 ft 243 kts 334°
2026-05-08 21:47 39.67086 2.90907 8419 ft 236 kts 295°
2026-05-08 21:48 39.67570 2.88935 9145 ft 233 kts 277°
2026-05-08 21:48 39.67822 2.86869 9878 ft 236 kts 275°
2026-05-08 21:48 39.68063 2.84778 10608 ft 238 kts 275°
2026-05-08 21:48 39.68289 2.82653 11376 ft 238 kts 274°
2026-05-08 21:49 39.68469 2.80521 12108 ft 239 kts 272°
2026-05-08 21:49 39.68578 2.78388 12817 ft 240 kts 270°
2026-05-08 21:49 39.68604 2.76225 13498 ft 241 kts 268°
2026-05-08 21:49 39.68657 2.74035 13992 ft 252 kts 274°
2026-05-08 21:50 39.69023 2.71736 14296 ft 271 kts 285°
2026-05-08 21:50 39.69834 2.69441 14588 ft 292 kts 298°
2026-05-08 21:50 39.70995 2.67176 14877 ft 308 kts 298°
2026-05-08 21:50 39.72016 2.64657 15178 ft 320 kts 291°
2026-05-08 21:51 39.72940 2.62026 15686 ft 326 kts 291°
2026-05-08 21:51 39.73862 2.59333 16321 ft 328 kts 290°
2026-05-08 21:51 39.74785 2.56608 16946 ft 330 kts 290°
2026-05-08 21:51 39.75704 2.53874 17534 ft 332 kts 290°
2026-05-08 21:52 39.76617 2.51147 18154 ft 333 kts 290°
2026-05-08 21:52 39.77536 2.48393 18730 ft 335 kts 290°
2026-05-08 21:52 39.78460 2.45619 19268 ft 337 kts 290°
2026-05-08 21:52 39.79394 2.42810 19799 ft 340 kts 289°
2026-05-08 21:53 39.80331 2.39983 20318 ft 343 kts 289°
2026-05-08 21:53 39.81274 2.37140 20833 ft 345 kts 289°
2026-05-08 21:53 39.82223 2.34281 21350 ft 347 kts 289°
2026-05-08 21:53 39.83178 2.31386 21881 ft 349 kts 288°
2026-05-08 21:54 39.84132 2.28459 22369 ft 352 kts 288°
2026-05-08 21:54 39.85082 2.25519 22844 ft 355 kts 288°
2026-05-08 21:54 39.86041 2.22558 23331 ft 357 kts 288°
2026-05-08 21:54 39.87002 2.19583 23792 ft 359 kts 288°
2026-05-08 21:55 39.87967 2.16595 24270 ft 360 kts 288°
2026-05-08 21:55 39.88928 2.13618 24738 ft 361 kts 288°
2026-05-08 21:55 39.89906 2.10580 25170 ft 363 kts 288°
2026-05-08 21:56 39.91855 2.04526 26065 ft 365 kts 288°
2026-05-08 21:56 39.92837 2.01468 26498 ft 366 kts 288°
2026-05-08 21:56 39.93809 1.98442 26895 ft 367 kts 287°
2026-05-08 21:56 39.94801 1.95340 27292 ft 368 kts 287°
2026-05-08 21:57 39.95784 1.92266 27676 ft 370 kts 287°
2026-05-08 21:57 39.96766 1.89189 28055 ft 370 kts 287°
2026-05-08 21:57 39.97750 1.86112 28412 ft 372 kts 287°
2026-05-08 21:57 39.98745 1.82999 28734 ft 374 kts 287°
2026-05-08 21:58 39.99989 1.79983 29030 ft 384 kts 298°
2026-05-08 21:58 40.01750 1.77340 29350 ft 396 kts 310°
2026-05-08 21:58 40.03996 1.75158 29644 ft 410 kts 322°
2026-05-08 21:58 40.06614 1.73561 29913 ft 421 kts 329°
2026-05-08 21:59 40.09333 1.72152 30227 ft 423 kts 330°
2026-05-08 21:59 40.12080 1.70757 30507 ft 425 kts 330°
2026-05-08 21:59 40.14862 1.69344 30786 ft 426 kts 329°
2026-05-08 21:59 40.17597 1.67950 31051 ft 427 kts 329°
2026-05-08 22:00 40.20387 1.66522 31290 ft 429 kts 329°
2026-05-08 22:00 40.23171 1.65094 31520 ft 431 kts 329°
2026-05-08 22:00 40.25950 1.63664 31760 ft 432 kts 329°
2026-05-08 22:00 40.28742 1.62228 32009 ft 433 kts 328°
2026-05-08 22:01 40.31531 1.60788 32198 ft 435 kts 328°
2026-05-08 22:01 40.34356 1.59328 32369 ft 437 kts 328°
2026-05-08 22:01 40.37185 1.57864 32580 ft 438 kts 328°
2026-05-08 22:01 40.40022 1.56398 32826 ft 438 kts 328°
2026-05-08 22:02 40.42839 1.54945 33119 ft 437 kts 327°
2026-05-08 22:02 40.45663 1.53482 33376 ft 436 kts 327°
2026-05-08 22:02 40.48477 1.52023 33630 ft 435 kts 327°
2026-05-08 22:02 40.51283 1.50564 33825 ft 436 kts 327°
2026-05-08 22:03 40.54130 1.49080 34042 ft 436 kts 327°
2026-05-08 22:03 40.56920 1.47627 34247 ft 436 kts 327°
2026-05-08 22:03 40.59750 1.46150 34416 ft 437 kts 327°
2026-05-08 22:03 40.62548 1.44691 34590 ft 437 kts 327°
2026-05-08 22:04 40.65378 1.43216 34738 ft 438 kts 327°
2026-05-08 22:04 40.68217 1.41736 34876 ft 439 kts 327°
2026-05-08 22:04 40.71078 1.40242 35028 ft 440 kts 327°
2026-05-08 22:04 40.73896 1.38770 35196 ft 440 kts 327°
2026-05-08 22:05 40.76754 1.37272 35311 ft 441 kts 327°
2026-05-08 22:05 40.79597 1.35783 35464 ft 441 kts 327°
2026-05-08 22:05 40.82444 1.34290 35599 ft 442 kts 326°
2026-05-08 22:05 40.85298 1.32793 35776 ft 442 kts 326°
2026-05-08 22:06 40.88174 1.31278 35890 ft 443 kts 326°
2026-05-08 22:06 40.91034 1.29773 36023 ft 443 kts 326°
2026-05-08 22:06 40.93910 1.28260 36030 ft 445 kts 326°
2026-05-08 22:07 40.99604 1.25257 36034 ft 443 kts 326°
2026-05-08 22:07 41.05326 1.22233 36043 ft 443 kts 326°
2026-05-08 22:08 41.11151 1.19384 36045 ft 451 kts 331°
2026-05-08 22:08 41.17337 1.17386 36054 ft 463 kts 339°
2026-05-08 22:09 41.23783 1.16278 36058 ft 469 kts 343°
2026-05-08 22:09 41.30286 1.15530 36057 ft 471 kts 344°
2026-05-08 22:10 41.36834 1.14820 36054 ft 471 kts 344°
2026-05-08 22:10 41.43396 1.14140 36052 ft 470 kts 344°
2026-05-08 22:11 41.49906 1.13457 36052 ft 470 kts 344°
2026-05-08 22:11 41.56419 1.12771 36050 ft 469 kts 344°
2026-05-08 22:12 41.62896 1.12085 36051 ft 469 kts 345°
2026-05-08 22:12 41.69406 1.11393 36053 ft 470 kts 345°
2026-05-08 22:13 41.75914 1.10705 36052 ft 470 kts 344°
2026-05-08 22:13 41.82383 1.10020 36049 ft 468 kts 344°
2026-05-08 22:14 41.88892 1.09323 36053 ft 469 kts 345°
2026-05-08 22:14 41.95418 1.08626 36048 ft 471 kts 344°
2026-05-08 22:15 42.01916 1.07930 36047 ft 469 kts 345°
2026-05-08 22:15 42.08415 1.07229 36045 ft 470 kts 345°
2026-05-08 22:16 42.14948 1.06525 36044 ft 470 kts 345°
2026-05-08 22:16 42.21468 1.05827 36045 ft 470 kts 345°
2026-05-08 22:17 42.27967 1.05128 36047 ft 468 kts 345°
2026-05-08 22:17 42.34431 1.04425 36050 ft 469 kts 345°
2026-05-08 22:18 42.40979 1.03718 36055 ft 470 kts 345°
2026-05-08 22:18 42.47521 1.03007 36065 ft 472 kts 346°
2026-05-08 22:19 42.54091 1.02291 36079 ft 472 kts 346°
2026-05-08 22:19 42.60646 1.01580 36078 ft 471 kts 346°
2026-05-08 22:20 42.67168 1.00865 36084 ft 470 kts 346°
2026-05-08 22:20 42.73682 1.00145 36086 ft 471 kts 347°
2026-05-08 22:21 42.80200 0.99430 36067 ft 471 kts 347°
2026-05-08 22:21 42.86757 0.98716 36049 ft 472 kts 347°
2026-05-08 22:22 42.93281 0.97996 36043 ft 471 kts 347°
2026-05-08 22:22 42.99846 0.97271 36041 ft 472 kts 347°
2026-05-08 22:23 43.06406 0.96546 36031 ft 472 kts 347°
2026-05-08 22:23 43.12930 0.95821 36011 ft 472 kts 347°
2026-05-08 22:24 43.19496 0.95092 35991 ft 473 kts 348°
2026-05-08 22:24 43.26041 0.94364 35982 ft 472 kts 348°
2026-05-08 22:25 43.32554 0.93641 35981 ft 471 kts 348°
2026-05-08 22:25 43.39125 0.92902 35976 ft 471 kts 348°
2026-05-08 22:26 43.45649 0.92171 35976 ft 469 kts 348°
2026-05-08 22:26 43.52159 0.91438 35970 ft 469 kts 348°
2026-05-08 22:27 43.58674 0.90706 35970 ft 470 kts 349°
2026-05-08 22:27 43.65173 0.89973 35968 ft 469 kts 349°
2026-05-08 22:28 43.71676 0.89235 35966 ft 470 kts 349°
2026-05-08 22:28 43.78182 0.88497 35963 ft 470 kts 349°
2026-05-08 22:29 43.84626 0.87389 35961 ft 464 kts 343°
2026-05-08 22:29 43.90842 0.85284 35962 ft 458 kts 336°
2026-05-08 22:30 43.96771 0.82202 35960 ft 452 kts 330°
2026-05-08 22:30 44.02497 0.78526 35960 ft 452 kts 329°
2026-05-08 22:31 44.08173 0.74825 35969 ft 453 kts 329°
2026-05-08 22:31 44.13878 0.71117 35972 ft 455 kts 329°
2026-05-08 22:32 44.19622 0.67380 35972 ft 457 kts 329°
2026-05-08 22:32 44.25383 0.63629 35977 ft 458 kts 330°
2026-05-08 22:33 44.31146 0.59873 35987 ft 458 kts 330°
2026-05-08 22:33 44.36910 0.56098 35985 ft 459 kts 330°
2026-05-08 22:34 44.42730 0.52281 35981 ft 461 kts 330°
2026-05-08 22:34 44.48504 0.48477 35977 ft 461 kts 330°
2026-05-08 22:35 44.54289 0.44643 35976 ft 461 kts 330°
2026-05-08 22:35 44.60102 0.40780 35972 ft 462 kts 330°
2026-05-08 22:36 44.65888 0.36921 35973 ft 463 kts 331°
2026-05-08 22:36 44.71690 0.33050 35968 ft 463 kts 330°
2026-05-08 22:37 44.77528 0.29142 35968 ft 463 kts 330°
2026-05-08 22:37 44.83340 0.25241 35968 ft 464 kts 330°
2026-05-08 22:38 44.89134 0.21344 35966 ft 464 kts 330°
2026-05-08 22:38 44.94941 0.17428 35967 ft 465 kts 331°
2026-05-08 22:39 45.00799 0.13475 35966 ft 466 kts 331°
2026-05-08 22:39 45.06603 0.09546 35973 ft 466 kts 331°
2026-05-08 22:40 45.12463 0.05573 35980 ft 466 kts 331°
2026-05-08 22:40 45.18283 0.01619 35978 ft 467 kts 331°
2026-05-08 22:41 45.24147 -0.02374 35973 ft 467 kts 332°
2026-05-08 22:41 45.29974 -0.06353 35968 ft 468 kts 331°
2026-05-08 22:42 45.35848 -0.10379 35961 ft 468 kts 332°
2026-05-08 22:42 45.41666 -0.14372 35960 ft 468 kts 332°
2026-05-08 22:43 45.47527 -0.18405 35957 ft 470 kts 332°
2026-05-08 22:43 45.53406 -0.22459 35963 ft 469 kts 332°
2026-05-08 22:44 45.59278 -0.26520 35963 ft 469 kts 332°
2026-05-08 22:44 45.65187 -0.30474 35966 ft 470 kts 336°
2026-05-08 22:45 45.71326 -0.33616 35967 ft 471 kts 341°
2026-05-08 22:45 45.77560 -0.36410 35966 ft 472 kts 341°
2026-05-08 22:46 45.83826 -0.39217 35965 ft 472 kts 341°
2026-05-08 22:46 45.90055 -0.42032 35960 ft 471 kts 341°
2026-05-08 22:47 45.96317 -0.44874 35965 ft 471 kts 342°
2026-05-08 22:47 46.02585 -0.47727 35965 ft 472 kts 342°
2026-05-08 22:48 46.08818 -0.50573 35966 ft 472 kts 342°
2026-05-08 22:48 46.15054 -0.53425 35959 ft 472 kts 342°
2026-05-08 22:49 46.21346 -0.56313 35977 ft 473 kts 342°
2026-05-08 22:49 46.30735 -0.60635 35982 ft 473 kts 342°
2026-05-08 22:50 46.36982 -0.63519 35973 ft 474 kts 342°
2026-05-08 22:50 46.43190 -0.66673 35983 ft 474 kts 336°
2026-05-08 22:51 46.49165 -0.70742 35986 ft 473 kts 332°
2026-05-08 22:51 46.55025 -0.75059 35974 ft 474 kts 332°
2026-05-08 22:52 46.60906 -0.79393 35992 ft 475 kts 333°
2026-05-08 22:52 46.66814 -0.83741 35979 ft 475 kts 333°
2026-05-08 22:53 46.72690 -0.88067 35982 ft 476 kts 333°
2026-05-08 22:53 46.78569 -0.92408 35975 ft 476 kts 333°
2026-05-08 22:54 46.84502 -0.96800 35985 ft 477 kts 333°
2026-05-08 22:54 46.90507 -1.00763 35977 ft 477 kts 340°
2026-05-08 22:55 46.96836 -1.03608 35993 ft 476 kts 348°
2026-05-08 22:55 47.03345 -1.05217 35994 ft 475 kts 355°
2026-05-08 22:56 47.09909 -1.06105 35991 ft 474 kts 356°
2026-05-08 22:56 47.16476 -1.06953 35993 ft 473 kts 356°
2026-05-08 22:57 47.22994 -1.07824 36000 ft 473 kts 356°
2026-05-08 22:57 47.29572 -1.08719 36003 ft 473 kts 356°
2026-05-08 22:58 47.36100 -1.09613 36001 ft 474 kts 356°
2026-05-08 22:58 47.42648 -1.10512 36000 ft 475 kts 356°
2026-05-08 22:59 47.49184 -1.11412 36000 ft 474 kts 356°
2026-05-08 22:59 47.55760 -1.12316 36002 ft 475 kts 356°
2026-05-08 23:00 47.62297 -1.13220 35999 ft 474 kts 356°
2026-05-08 23:00 47.68880 -1.14133 36001 ft 473 kts 356°
2026-05-08 23:01 47.75421 -1.15044 36003 ft 474 kts 356°
2026-05-08 23:01 47.81980 -1.15960 36003 ft 474 kts 356°
2026-05-08 23:02 47.88503 -1.16876 36004 ft 474 kts 356°
2026-05-08 23:02 47.95089 -1.17803 36002 ft 475 kts 356°
2026-05-08 23:03 48.01657 -1.18728 35998 ft 475 kts 356°
2026-05-08 23:03 48.08192 -1.19648 36001 ft 473 kts 356°
2026-05-08 23:04 48.14746 -1.20574 36007 ft 473 kts 356°
2026-05-08 23:04 48.21299 -1.21505 36014 ft 473 kts 355°
2026-05-08 23:05 48.27860 -1.22440 36013 ft 472 kts 355°
2026-05-08 23:05 48.34391 -1.23373 36018 ft 472 kts 355°
2026-05-08 23:06 48.40911 -1.24306 36019 ft 472 kts 355°
2026-05-08 23:06 48.47425 -1.25239 36018 ft 472 kts 355°
2026-05-08 23:07 48.53914 -1.26171 36021 ft 472 kts 355°
2026-05-08 23:07 48.60447 -1.27111 36025 ft 471 kts 355°
2026-05-08 23:08 48.66941 -1.28052 36027 ft 471 kts 355°
2026-05-08 23:08 48.73462 -1.28999 36032 ft 471 kts 355°
2026-05-08 23:09 48.79957 -1.29941 36031 ft 470 kts 355°
2026-05-08 23:09 48.86464 -1.30889 36035 ft 471 kts 355°
2026-05-08 23:10 48.92974 -1.31839 36033 ft 470 kts 355°
2026-05-08 23:10 48.99464 -1.32790 36046 ft 469 kts 355°
2026-05-08 23:11 49.05958 -1.33743 36040 ft 469 kts 355°
2026-05-08 23:11 49.12469 -1.34701 36036 ft 469 kts 355°
2026-05-08 23:12 49.18938 -1.35656 36042 ft 469 kts 355°
2026-05-08 23:12 49.25392 -1.36610 36041 ft 469 kts 355°
2026-05-08 23:13 49.31869 -1.37572 36046 ft 468 kts 354°
2026-05-08 23:13 49.38359 -1.38541 36041 ft 468 kts 355°
2026-05-08 23:14 49.44817 -1.39506 36044 ft 468 kts 354°
2026-05-08 23:14 49.51278 -1.40473 36056 ft 467 kts 354°
2026-05-08 23:15 49.57713 -1.41329 36056 ft 467 kts 357°
2026-05-08 23:15 49.64198 -1.41252 36063 ft 467 kts
2026-05-08 23:16 49.70647 -1.40674 36066 ft 466 kts
2026-05-08 23:16 49.77099 -1.40077 36063 ft 466 kts
2026-05-08 23:17 49.83555 -1.39497 36063 ft 465 kts
2026-05-08 23:17 49.90001 -1.38925 36058 ft 465 kts
2026-05-08 23:18 49.96422 -1.38353 36061 ft 464 kts
2026-05-08 23:18 50.02842 -1.37351 36065 ft 464 kts
2026-05-08 23:19 50.09201 -1.35786 36063 ft 464 kts
2026-05-08 23:19 50.15558 -1.34179 36065 ft 464 kts
2026-05-08 23:20 50.21931 -1.32581 36068 ft 464 kts
2026-05-08 23:20 50.28318 -1.30984 36070 ft 464 kts
2026-05-08 23:21 50.34693 -1.29385 36073 ft 464 kts
2026-05-08 23:21 50.41038 -1.27786 36076 ft 464 kts
2026-05-08 23:22 50.47338 -1.25430 36081 ft 464 kts 17°
2026-05-08 23:22 50.53366 -1.21758 36085 ft 464 kts 25°
2026-05-08 23:23 50.59007 -1.16865 36086 ft 464 kts 32°
2026-05-08 23:23 50.64458 -1.11415 36090 ft 464 kts 32°
2026-05-08 23:24 50.69895 -1.05957 36092 ft 464 kts 32°
2026-05-08 23:24 50.75310 -1.00538 36097 ft 464 kts 32°
2026-05-08 23:25 50.80899 -0.95429 36100 ft 463 kts 26°
2026-05-08 23:25 50.86821 -0.91347 36096 ft 463 kts 19°
2026-05-08 23:26 50.92887 -0.88124 36101 ft 461 kts 17°
2026-05-08 23:26 50.98996 -0.84997 36100 ft 460 kts 16°
2026-05-08 23:27 51.05080 -0.81857 36107 ft 460 kts 16°
2026-05-08 23:27 51.11151 -0.78702 36113 ft 460 kts 17°
2026-05-08 23:28 51.17235 -0.75527 36118 ft 460 kts 16°
2026-05-08 23:28 51.23334 -0.72334 36123 ft 461 kts 16°
2026-05-08 23:29 51.29421 -0.69139 36125 ft 461 kts 16°
2026-05-08 23:29 51.35500 -0.65938 36127 ft 460 kts 16°
2026-05-08 23:30 51.41573 -0.62730 36130 ft 460 kts 16°
2026-05-08 23:30 51.47643 -0.59515 36128 ft 459 kts 16°
2026-05-08 23:31 51.53734 -0.56281 36127 ft 459 kts 16°
2026-05-08 23:31 51.59780 -0.53062 36130 ft 459 kts 16°
2026-05-08 23:32 51.65838 -0.49828 36131 ft 459 kts 16°
2026-05-08 23:32 51.71912 -0.46577 36134 ft 460 kts 16°
2026-05-08 23:33 51.77967 -0.43347 36133 ft 459 kts 14°
2026-05-08 23:33 51.84169 -0.40832 36136 ft 457 kts
2026-05-08 23:34 51.90424 -0.38957 36139 ft 457 kts
2026-05-08 23:34 51.96666 -0.37132 36139 ft 457 kts
2026-05-08 23:35 52.02906 -0.35283 36138 ft 457 kts
2026-05-08 23:35 52.09183 -0.33409 36136 ft 458 kts
2026-05-08 23:36 52.15437 -0.31535 36136 ft 457 kts
2026-05-08 23:36 52.21696 -0.29665 36137 ft 456 kts
2026-05-08 23:37 52.27985 -0.29127 36139 ft 452 kts 353°
2026-05-08 23:37 52.34108 -0.30870 36136 ft 447 kts 340°
2026-05-08 23:38 52.39827 -0.34749 36139 ft 443 kts 329°
2026-05-08 23:38 52.45205 -0.39540 36138 ft 442 kts 328°
2026-05-08 23:39 52.50619 -0.44423 36139 ft 442 kts 328°
2026-05-08 23:39 52.56017 -0.49278 36140 ft 443 kts 328°
2026-05-08 23:40 52.61404 -0.54123 36142 ft 443 kts 328°
2026-05-08 23:40 52.66807 -0.58991 36142 ft 442 kts 328°
2026-05-08 23:41 52.72189 -0.63853 36140 ft 442 kts 328°
2026-05-08 23:41 52.77590 -0.68748 35537 ft 446 kts 327°
2026-05-08 23:42 52.80292 -0.71201 34778 ft 448 kts 327°
2026-05-08 23:42 52.83007 -0.73669 33856 ft 451 kts 327°
2026-05-08 23:42 52.85779 -0.76194 32961 ft 452 kts 327°
2026-05-08 23:42 52.88509 -0.78684 32177 ft 451 kts 327°
2026-05-08 23:43 52.91222 -0.81158 31635 ft 445 kts 327°
2026-05-08 23:43 52.93899 -0.83607 31090 ft 439 kts 327°
2026-05-08 23:43 52.96569 -0.86054 30542 ft 435 kts 327°
2026-05-08 23:43 52.99181 -0.88452 30001 ft 430 kts 326°
2026-05-08 23:44 53.01804 -0.90863 29466 ft 426 kts 327°
2026-05-08 23:44 53.04374 -0.93220 28965 ft 422 kts 326°
2026-05-08 23:44 53.06930 -0.95567 28481 ft 417 kts 327°
2026-05-08 23:44 53.09433 -0.97872 28016 ft 411 kts 327°
2026-05-08 23:45 53.11919 -1.00165 27536 ft 407 kts 327°
2026-05-08 23:45 53.14350 -1.02410 27060 ft 402 kts 327°
2026-05-08 23:45 53.16793 -1.04668 26600 ft 397 kts 327°
2026-05-08 23:45 53.19206 -1.06901 26139 ft 393 kts 327°
2026-05-08 23:46 53.21582 -1.09104 25659 ft 390 kts 327°
2026-05-08 23:46 53.23906 -1.11265 25194 ft 387 kts 327°
2026-05-08 23:46 53.26232 -1.13432 24724 ft 384 kts 327°
2026-05-08 23:46 53.28558 -1.15597 24216 ft 382 kts 327°
2026-05-08 23:47 53.30884 -1.17767 23685 ft 381 kts 327°
2026-05-08 23:47 53.33199 -1.19926 23191 ft 379 kts 327°
2026-05-08 23:47 53.35490 -1.22067 22724 ft 377 kts 327°
2026-05-08 23:47 53.37752 -1.24185 22275 ft 374 kts 327°
2026-05-08 23:48 53.40025 -1.26226 21831 ft 373 kts 332°
2026-05-08 23:48 53.42463 -1.27695 21390 ft 374 kts 342°
2026-05-08 23:48 53.45021 -1.28450 20952 ft 374 kts 351°
2026-05-08 23:48 53.47580 -1.28795 20526 ft 372 kts 353°
2026-05-08 23:49 53.50163 -1.29070 20084 ft 370 kts 353°
2026-05-08 23:49 53.52702 -1.29347 19635 ft 368 kts 353°
2026-05-08 23:49 53.55256 -1.29641 19190 ft 366 kts 353°
2026-05-08 23:49 53.57731 -1.30188 18746 ft 360 kts 343°
2026-05-08 23:50 53.60093 -1.31530 18304 ft 354 kts 332°
2026-05-08 23:50 53.62212 -1.33467 17872 ft 349 kts 326°
2026-05-08 23:50 53.64302 -1.35615 17440 ft 347 kts 325°
2026-05-08 23:50 53.66342 -1.37732 17003 ft 345 kts 326°
2026-05-08 23:51 53.68372 -1.39821 16570 ft 344 kts 326°
2026-05-08 23:51 53.70403 -1.41897 16120 ft 343 kts 326°
2026-05-08 23:51 53.72432 -1.43962 15679 ft 341 kts 326°
2026-05-08 23:51 53.74459 -1.46022 15248 ft 339 kts 326°
2026-05-08 23:52 53.76479 -1.48077 14792 ft 337 kts 327°
2026-05-08 23:52 53.78458 -1.50095 14372 ft 334 kts 327°
2026-05-08 23:52 53.80431 -1.52108 13951 ft 332 kts 327°
2026-05-08 23:52 53.82399 -1.54120 13523 ft 330 kts 327°
2026-05-08 23:53 53.84365 -1.56130 13094 ft 327 kts 327°
2026-05-08 23:53 53.86300 -1.58114 12665 ft 325 kts 327°
2026-05-08 23:53 53.88239 -1.60104 12239 ft 323 kts 327°
2026-05-08 23:53 53.90153 -1.62069 11814 ft 320 kts 327°
2026-05-08 23:54 53.92041 -1.64010 11390 ft 318 kts 327°
2026-05-08 23:54 53.93912 -1.65937 10970 ft 316 kts 327°
2026-05-08 23:54 53.95789 -1.67870 10543 ft 314 kts 327°
2026-05-08 23:55 53.99369 -1.71564 10225 ft 290 kts 327°
2026-05-08 23:55 54.01055 -1.73304 10046 ft 282 kts 327°
2026-05-08 23:55 54.02722 -1.75030 9678 ft 281 kts 327°
2026-05-08 23:55 54.04385 -1.76752 9326 ft 279 kts 327°
2026-05-08 23:56 54.06042 -1.78467 8973 ft 278 kts 327°
2026-05-08 23:56 54.07684 -1.80169 8641 ft 277 kts 327°
2026-05-08 23:56 54.09302 -1.81848 8301 ft 275 kts 327°
2026-05-08 23:56 54.10941 -1.83551 7941 ft 274 kts 327°
2026-05-08 23:57 54.12557 -1.85231 7602 ft 272 kts 327°
2026-05-08 23:57 54.14154 -1.86894 7281 ft 271 kts 327°
2026-05-08 23:57 54.15767 -1.88574 6944 ft 269 kts 328°
2026-05-08 23:57 54.17334 -1.90207 6618 ft 268 kts 328°
2026-05-08 23:58 54.18925 -1.91865 6282 ft 266 kts 328°
2026-05-08 23:58 54.20515 -1.93435 5938 ft 266 kts 336°
2026-05-08 23:58 54.22307 -1.93913 5583 ft 265 kts
2026-05-08 23:58 54.23998 -1.92821 5248 ft 261 kts 37°
2026-05-08 23:59 54.25295 -1.90665 4937 ft 258 kts 49°
2026-05-08 23:59 54.26483 -1.88403 4626 ft 256 kts 50°
2026-05-08 23:59 54.27679 -1.86136 4314 ft 255 kts 49°
2026-05-08 23:59 54.28873 -1.83896 4001 ft 253 kts 49°
2026-05-09 00:00 54.30057 -1.81695 3693 ft 252 kts 49°
2026-05-09 00:00 54.31231 -1.79520 3391 ft 251 kts 49°
2026-05-09 00:00 54.32401 -1.77356 3262 ft 241 kts 49°
2026-05-09 00:00 54.33517 -1.75296 3252 ft 226 kts 49°
2026-05-09 00:01 54.34550 -1.73392 3250 ft 214 kts 49°
2026-05-09 00:01 54.35564 -1.71540 3258 ft 213 kts 48°
2026-05-09 00:01 54.36594 -1.69742 3264 ft 214 kts 48°
2026-05-09 00:01 54.37620 -1.67915 3254 ft 204 kts 49°
2026-05-09 00:02 54.38558 -1.66194 3249 ft 196 kts 50°
2026-05-09 00:02 54.39475 -1.64474 3228 ft 193 kts 50°
2026-05-09 00:02 54.40348 -1.62825 3042 ft 185 kts 50°
2026-05-09 00:02 54.41202 -1.61207 2777 ft 181 kts 50°
2026-05-09 00:03 54.42036 -1.59631 2519 ft 178 kts 50°
2026-05-09 00:03 54.42858 -1.58081 2269 ft 174 kts 50°
2026-05-09 00:03 54.43666 -1.56560 2029 ft 169 kts 50°
2026-05-09 00:03 54.44450 -1.55087 1817 ft 161 kts 50°
2026-05-09 00:04 54.45169 -1.53739 1606 ft 147 kts 50°
2026-05-09 00:04 54.45826 -1.52504 1386 ft 134 kts 50°
2026-05-09 00:04 54.46448 -1.51333 1211 ft 132 kts 50°
2026-05-09 00:04 54.47067 -1.50173 1066 ft 131 kts 50°
2026-05-09 00:05 54.47687 -1.49016 903 ft 131 kts 49°
2026-05-09 00:05 54.48299 -1.47867 725 ft 131 kts 49°
2026-05-09 00:05 54.48904 -1.46706 532 ft 130 kts 49°
2026-05-09 00:05 54.49526 -1.45554 366 ft 131 kts 47°
2026-05-09 00:06 54.50135 -1.44411 189 ft 131 kts 47°
2026-05-09 00:06 54.50726 -1.43304 126 ft 108 kts 47°
2026-05-09 00:06 54.51052 -1.42691 123 ft 50 kts 49°
2026-05-09 00:06 54.51280 -1.42265 122 ft 46 kts 47°
2026-05-09 00:07 54.51482 -1.41880 119 ft 36 kts 48°
2026-05-09 00:07 54.51608 -1.41704 119 ft 12 kts 27°
2026-05-09 00:07 54.51576 -1.41690 119 ft 11 kts 230°
2026-05-09 00:07 54.51519 -1.41811 119 ft 15 kts 230°
2026-05-09 00:08 54.51440 -1.41963 119 ft 18 kts 227°
2026-05-09 00:08 54.51349 -1.42134 122 ft 19 kts 227°
2026-05-09 00:08 54.51252 -1.42314 122 ft 20 kts 227°
2026-05-09 00:08 54.51156 -1.42495 123 ft 20 kts 227°
2026-05-09 00:09 54.51063 -1.42683 123 ft 20 kts 246°
2026-05-09 00:09 54.51058 -1.42914 124 ft 19 kts 274°
2026-05-09 00:09 54.51064 -1.43132 126 ft 15 kts 272°
2026-05-09 00:09 54.51034 -1.43285 127 ft 14 kts 237°
2026-05-09 00:10 54.51003 -1.43416 126 ft 9 kts 302°
2026-05-09 00:10 54.51059 -1.43476 127 ft 5 kts 328°
2026-05-09 00:10 54.51063 -1.43481 127 ft 0 kts 328°